This demonstration page uses our WeatherBlox Daily Observations layout. Learn more.

Left ArrowRight Arrow

41.12389, -100.76542

Hourly Observations for September 21, 2017

Temp ( °F °C ) Dew Point ( °F °C ) Humidity (%) Winds ( mph kmh ) Pressure ( in mb ) Visibility ( mi km ) Precip ( " mm )
12:53 am 00:53 Clear 47 8.3 43 6.1 86 86 ESE 6 9 29.85 1011 10 16 0.00 0.00
1:53 am 01:53 Clear 47 8.3 44 6.7 90 90 ESE 8 13 29.84 1010 10 16 0.00 0.00
2:53 am 02:53 Clear 48 8.9 44 6.7 86 86 E 10 17 29.82 1010 10 16 0.00 0.00
3:53 am 03:53 Clear 47 8.3 43 6.1 86 86 E 8 13 29.79 1009 10 16 0.00 0.00
4:53 am 04:53 Clear 47 8.3 43 6.1 86 86 ESE 7 11 29.78 1009 10 16 0.00 0.00
5:53 am 05:53 Clear 48 8.9 45 7.2 89 89 ESE 9 15 29.76 1008 10 16 0.00 0.00
6:53 am 06:53 Clear 48 8.9 46 7.8 93 93 ESE 8 13 29.76 1008 10 16 0.00 0.00
7:53 am 07:53 Sunny 49 9.4 47 8.3 93 93 ESE 8 13 29.77 1008 10 16 0.00 0.00
8:53 am 08:53 Sunny 54 12.2 50 10 87 87 ESE 10 17 29.76 1008 10 16 0.00 0.00
9:53 am 09:53 Sunny 61 16.1 54 12.2 78 78 ESE 12 19 29.74 1007 10 16 0.00 0.00
10:53 am 10:53 Sunny 69 20.6 57 13.9 66 66 SE 9 15 29.71 1006 10 16 0.00 0.00
11:53 am 11:53 Sunny 79 26.1 52 11.1 39 39 SSW 10 17 29.68 1005 10 16 0.00 0.00
12:53 pm 12:53 Sunny 83 28.3 53 11.7 36 36 S 13 20 29.65 1004 10 16 0.00 0.00
1:53 pm 13:53 Sunny 87 30.6 51 10.6 29 29 SSE 10 17 29.63 1003 10 16 0.00 0.00
2:53 pm 14:53 Sunny 91 32.8 47 8.3 22 22 SSE 14 22 29.60 1002 10 16 0.00 0.00
3:53 pm 15:53 Sunny 93 33.9 45 7.2 19 19 S 18 30 29.58 1002 10 16 0.00 0.00
4:53 pm 16:53 Sunny 95 35 45 7.2 18 18 S 15 24 29.54 1001 10 16 0.00 0.00
5:53 pm 17:53 Sunny 95 35 40 4.4 15 15 S 22 35 29.53 1000 10 16 0.00 0.00
6:53 pm 18:53 Sunny 91 32.8 40 4.4 17 17 S 13 20 29.54 1000 10 16 0.00 0.00
7:53 pm 19:53 Clear 88 31.1 39 3.9 18 18 S 14 22 29.55 1001 10 16 0.00 0.00
8:53 pm 20:53 Clear 84 28.9 42 5.6 23 23 SSE 9 15 29.56 1001 10 16 0.00 0.00
9:53 pm 21:53 Clear 83 28.3 41 5 23 23 SSE 14 22 29.56 1001 10 16 0.00 0.00
10:53 pm 22:53 Clear 82 27.8 42 5.6 24 24 S 15 24 29.55 1001 10 16 0.00 0.00
11:53 pm 23:53 Clear 80 26.7 42 5.6 26 26 SSE 14 22 29.54 1000 10 16 0.00 0.00

Powered by AerisWeather